小林彗星

P/1997 B1 ( Kobayashi )

English version
Home page
Updated on September 29, 2004

---------------------------------------------------------------------

・ プロフィール

発見日 1997年1月30日
発見光度 18等
発見者 小林隆男 (群馬県大泉町)

・ 軌道要素

   The following improved orbital elements, by Kenji Muraoka, are 
  from 231 observations 1997 Jan. 30 to May 28, perturbations by 
  9 Planets, Moon and 5 minor planets were taken into account. 
   The mean residual is +/- 0.48 arc seconds.

      Epoch  =  1997 Mar. 13.0  TT       JDT = 2450520.5
          T  =  1997 Mar.  2.34714       +/- 0.00163 (m.e.) TT
       Peri. =  183.34012                +/- 0.00171
       Node  =  329.06411                +/- 0.00193   (2000.0)
       Incl. =   12.34952                +/- 0.00024
          q  =    2.0545494              +/- 0.0000897 AU
          e  =    0.7607513              +/- 0.0000070
          a  =    8.5875047              +/- 0.0002774 AU
          n  =    0.03916549             +/- 0.00000190
          P  =   25.165                  +/- 0.0012192  years
                                        (+/- 0.45 day)

・ 星図

・ 1996年12月 3日〜1997年 7月31日

・ 光度変化

        m1 = 15.2 + 5 logΔ + 5 log r(t - 30)

---------------------------------------------------------------------

軌道要素は村岡健治氏の計算によるものです。
星図は StellaNavigator Ver.2.0 for Windows (アストロアーツ 編著 / アスキー出版局刊) で作成したものです。
光度グラフはComet for Windowsで作成したものです。

---------------------------------------------------------------------

Copyright(C) Seiichi Yoshida (comet@aerith.net). All rights reserved.